Weather History for Riverside, CA

Change the Weather History Date:

Saturday, February 2, 2013

  Actual Average Record
Temperature  
Mean Temperature 67 °F 55 °F  
Max Temperature 77 °F 66 °F 87 °F (1995)
Min Temperature 56 °F 44 °F 27 °F (1946)
Degree Days  
Heating Degree Days 0 10  
Month to date heating degree days 0 20  
Since 1 July heating degree days 769 865  
Cooling Degree Days 2 0  
Month to date cooling degree days 2 0  
Year to date cooling degree days 2 6  
Growing Degree Days 22 (Base 50)    
Moisture  
Dew Point 41 °F    
Average Humidity 34    
Maximum Humidity 55    
Minimum Humidity 13    
Precipitation  
Precipitation 0.00 in 0.05 in 0.96 in (1915)
Month to date precipitation 0.00 0.10  
Year to date precipitation 0.90 3.04  
Since 1 July precipitation 2.81 6.25  
Snow  
Snow 0.00 in - - ()
Month to date snowfall 0.0  
Year to date snowfall 0.0  
Since 1 July snowfall 0.0  
Snow Depth 0.00 in    
Sea Level Pressure  
Sea Level Pressure 30.12 in    
Wind  
Wind Speed 3 mph (ENE)    
Max Wind Speed 9 mph    
Max Gust Speed 12 mph    
Visibility 10 miles    
Events Rain    
T = Trace of Precipitation, MM = Missing Value Source: NWS Daily Summary

Daily Weather History Graph

Daily Weather History Graph

Search for Another Location

Airport:

Trip Planner

Search our weather history database for the weather conditions in past years. The results will help you decide how hot, cold, wet, or windy it might be!

Date:

Astronomy

Feb. 02, 2013 Rise Set
Actual Time 6:45 AM PST 5:21 PM PST
Civil Twilight 6:19 AM PST 5:47 PM PST
Nautical Twilight 5:49 AM PST 6:17 PM PST
Astronomical Twilight 5:20 AM PST 6:47 PM PST
Moon No Moon Rise 10:20 AM PST (2/2)
Length of Visible Light 11h 28m
Length of Day
10h 36m
Waning Gibbous, 58% of the Moon is Illuminated
Feb 2
Waning Gibbous
Feb 3
Last Quarter
Feb 9
New
Feb 17
First Quarter
Feb 25
Full

Hourly Weather History & Observations

Time (PST) Temp. Dew Point Humidity Pressure Visibility Wind Dir Wind Speed Gust Speed Precip Events Conditions
12:53 AM 60.1 °F 42.1 °F 51% 30.14 in 10.0 mi ENE 4.6 mph - N/A   Clear
1:53 AM 62.1 °F 39.0 °F 43% 30.14 in 10.0 mi NE 4.6 mph - N/A   Clear
2:53 AM 60.1 °F 39.0 °F 46% 30.13 in 10.0 mi NE 4.6 mph - N/A   Clear
4:53 AM 59.0 °F 41.0 °F 51% 30.13 in 10.0 mi Calm Calm - N/A   Clear
5:53 AM 63.0 °F 39.9 °F 43% 30.14 in 10.0 mi Calm Calm - N/A   Clear
6:53 AM 62.1 °F 39.0 °F 43% 30.16 in 10.0 mi NE 5.8 mph - N/A   Mostly Cloudy
7:53 AM 55.9 °F 39.9 °F 55% 30.17 in 10.0 mi ENE 3.5 mph - N/A   Overcast
8:53 AM 60.1 °F 39.9 °F 47% 30.18 in 10.0 mi Calm Calm - N/A   Clear
9:53 AM 64.0 °F 42.1 °F 45% 30.17 in 10.0 mi East 4.6 mph - N/A   Overcast
10:53 AM 71.1 °F 42.1 °F 35% 30.17 in 10.0 mi Calm Calm - N/A   Overcast
11:53 AM - - N/A% 30.12 in 10.0 mi East 5.8 mph - N/A   Overcast
12:53 PM 89.1 °F 32.0 °F 13% 30.09 in 10.0 mi East 8.1 mph - N/A   Overcast
1:53 PM 84.9 °F 36.0 °F 17% 30.07 in 10.0 mi Calm Calm - N/A   Mostly Cloudy
2:53 PM 84.9 °F 35.1 °F 17% 30.07 in 10.0 mi Calm Calm - N/A   Overcast
3:53 PM 80.1 °F 39.0 °F 23% 30.07 in 10.0 mi Calm Calm - N/A   Mostly Cloudy
4:53 PM 79.0 °F 42.1 °F 27% 30.09 in 10.0 mi Calm Calm - N/A   Mostly Cloudy
5:53 PM 84.0 °F 41.0 °F 22% 30.09 in 10.0 mi West 3.5 mph - N/A   Overcast
6:53 PM 73.0 °F 44.1 °F 35% 30.11 in 10.0 mi Calm Calm - N/A   Overcast
7:53 PM 72.0 °F 45.0 °F 38% 30.13 in 10.0 mi Calm Calm - N/A   Scattered Clouds
8:53 PM 70.0 °F 45.0 °F 41% 30.12 in 10.0 mi Calm Calm - N/A   Overcast
9:53 PM 70.0 °F 46.0 °F 42% 30.11 in 10.0 mi Calm Calm - 0.00 in   Overcast
10:53 PM 75.9 °F 48.0 °F 37% 30.11 in 10.0 mi WSW 3.5 mph - 0.00 in Rain Light Rain
11:53 PM 66.9 °F 48.9 °F 52% 30.11 in 10.0 mi Calm Calm - 0.00 in   Overcast